Location: Turtle Rock Observatory
(36.6913°N, 81.9708°W)
Time: 08:05:42
(UTC-04:00)

Daily predictions for brighter satellites

Satellite Brightness Start Highest point End
(mag) Time Altitude Azimuth Time Altitude Azimuth Time Altitude Azimuth
ATLAS CENTAUR R/B 3.3 19:24:27 10° SW 19:28:37 88° NW 19:41:29 10° NE
SL-16 R/B 3.3 19:27:38 10° SW 19:33:08 50° WNW 19:38:40 10° N
Cosmos 1072 Rocket 4.4 19:28:45 10° S 19:34:49 74° E 19:40:55 10° N
Cosmos-2242 3.6 19:31:19 10° SSE 19:35:21 37° E 19:39:25 10° NNE
Cosmos 1766 Rocket 3.8 19:33:24 10° N 19:37:36 45° E 19:41:44 10° SSE
Cosmos 724 4.4 19:31:46 10° SSW 19:37:41 90° NNE 19:43:47 10° NNE
Cosmos 1758 3.6 19:35:48 10° SSE 19:39:44 48° E 19:43:42 10° NNE
CENTAUR R/B 2.9 19:36:35 10° S 19:42:01 39° ESE 19:48:00 10° NE
ISS -2.8 19:40:25 10° WSW 19:43:37 60° NW 19:46:51 10° NE
Cosmos 1452 Rocket 3.5 19:40:35 10° NNW 19:45:51 71° ENE 19:51:04 10° SSE
Cosmos 1766 4.2 19:42:58 10° SSW 19:46:51 54° W 19:50:46 10° N
Abrixas 4.2 19:46:51 10° W 19:49:31 29° NNW 19:52:13 10° NE
GPS 2-04 Rocket1 2.4 19:47:03 10° WSW 19:50:27 65° S 19:53:27 13° E
NOAA 12 4.3 19:45:24 10° SSE 19:50:28 51° ENE 19:55:36 10° N
Meteor 1-21 Rocket 4.4 19:45:09 10° N 19:50:30 47° ENE 19:55:49 10° SSE
SAR-Lupe-1 4.2 19:47:31 10° SSE 19:50:58 49° ENE 19:54:25 10° N
Meteor 1-28 Rocket 3.1 19:50:56 10° NNE 19:54:37 61° E 19:58:17 10° S
Cosmos 1943 Rocket 3.9 19:58:52 10° NNE 20:01:18 13° NE 20:02:50 12° ENE
Cosmos 1420 Rocket 4.1 19:58:48 10° N 20:04:03 56° ENE 20:09:14 10° SSE
H-2A R/B 4.5 20:06:04 15° ENE 20:06:04 15° ENE 20:08:20 10° NNE
Cosmos 1346 3.0 20:04:28 10° N 20:07:25 55° E 20:10:19 10° SSE
Cosmos 1408 Rocket 3.8 20:03:08 10° N 20:07:28 73° W 20:11:44 10° S
Milstar 3 4.5 19:59:15 10° WSW 20:08:12 55° S 20:22:45 15° ESE
Cosmos 1842 Rocket 3.9 20:04:25 10° SSE 20:08:28 41° E 20:12:33 10° NNE
Cosmos 1500 Rocket 4.2 20:05:03 10° NNE 20:09:08 35° ENE 20:13:12 10° SE
Helios 1A 3.5 20:05:32 10° SE 20:09:25 38° ENE 20:13:20 10° N
Cosmos 2034 Rocket 4.1 20:03:58 10° S 20:10:14 85° W 20:16:37 10° N
OAO 3 Rocket 3.5 20:06:09 10° W 20:10:47 57° SSW 20:14:10 18° ESE
Cosmos 1805 3.7 20:06:59 10° SSW 20:10:53 65° W 20:14:48 10° N
Cosmos 1943 3.3 20:07:12 10° S 20:12:39 54° ESE 20:18:08 10° NNE
Cosmos 2369 Rocket 2.8 20:08:07 10° N 20:13:18 35° ENE 20:16:53 18° ESE
FREGAT/IRIS 2.5 20:11:00 10° SSE 20:14:05 83° ENE 20:17:10 10° N
Spot 2 Rocket 3.5 20:10:40 10° SSE 20:15:36 57° ENE 20:20:32 10° N
AVUM R/B 3.3 20:14:19 10° S 20:17:05 39° ESE 20:17:52 31° ENE
Cosmos 1048 Rocket 4.1 20:15:03 10° SSW 20:20:21 85° WNW 20:25:37 10° NNE
HJ-1C 3.2 20:20:38 10° SSE 20:23:58 70° ENE 20:27:19 10° N
Cosmos 1733 3.3 20:21:16 10° S 20:25:01 51° E 20:28:46 10° NNE
Cosmos 158 Rocket 3.7 20:20:58 10° S 20:25:46 62° ESE 20:30:36 10° NNE
Gbstr 26 Del rocket 3.5 20:23:56 10° WSW 20:28:10 64° NW 20:32:55 12° NE
Cosmos 1953 4.0 20:27:04 10° SW 20:30:43 35° W 20:34:24 10° NNW
Cosmos 1174 4.1 20:26:06 10° SSW 20:31:03 80° WNW 20:34:58 10° NNE
USA 215 3.2 20:26:34 10° NE 20:33:05 68° SE 20:39:34 10° SW
Cosmos 1674 2.6 20:29:38 10° N 20:33:33 73° E 20:36:55 13° SSE
Spot 1 4.3 20:29:26 10° S 20:34:07 80° WSW 20:38:33 10° NNW
TELKOM 3 4.0 20:31:41 10° NW 20:33:42 38° N 20:33:42 38° N
Helios 1B rocket 2.5 20:32:45 10° N 20:36:52 77° WNW 20:40:58 10° SSW
Cosmos 1470 2.7 20:33:30 10° S 20:37:23 85° W 20:41:16 10° N
CZ-4B DEB 3.9 20:39:43 31° NNE 20:39:43 31° NNE 20:41:45 10° N
Cosmos 1743 Rocket 3.8 20:34:42 10° NNW 20:39:07 70° W 20:43:27 10° S
Resurs 1-3 3.5 20:36:45 11° SSE 20:41:03 81° ENE 20:45:27 10° N
Resurs 01 Rocket 2.2 20:47:16 10° S 20:51:38 58° W 20:56:03 10° NNW
Meteosat 1 Rocket2 4.5 20:45:06 10° WSW 20:52:00 38° S 20:53:34 32° SSE
Meteor 1-16 Rocket 3.9 20:52:21 10° S 20:57:36 68° E 21:02:53 10° NNE
ALOS 2.2 20:58:30 32° S 21:00:40 87° W 21:05:21 10° NNW
Meteor 2-1 Rocket 4.3 20:55:24 10° S 21:00:59 53° E 21:06:41 10° NNE
ASTEX 1 3.9 21:06:50 10° N 21:11:39 58° W 21:16:25 10° SSW
Cosmos 2151 3.1 21:07:31 10° N 21:11:13 67° NNW 21:11:13 67° NNW
Cosmos 2279 Rocket 3.8 21:09:24 32° SSE 21:12:17 65° E 21:18:25 10° NNE
Cosmos 1110 Rocket 3.9 21:08:58 10° NNW 21:14:18 75° ENE 21:14:19 75° ENE
GP-B 3.1 21:11:02 10° N 21:15:21 77° WNW 21:15:21 77° WNW
FENGYUN 3A 3.9 21:13:34 24° S 21:16:50 67° WSW 21:22:13 10° NNW
Meteor 1-11 4.1 21:11:35 10° N 21:17:24 78° E 21:17:57 70° SE
ISS -0.3 21:19:31 10° NW 21:20:40 11° NNW 21:20:45 11° NNW
CENTAUR R/B 3.9 21:27:05 10° WSW 21:32:38 35° NW 21:38:49 10° NNE
Cosmos 2251 Rocket 4.2 21:28:07 10° SW 21:33:12 52° WNW 21:38:20 10° N
Cosmos 494 Rocket 4.2 21:28:24 10° SSW 21:33:35 66° WNW 21:38:44 10° NNE
Cosmos 2026 Rocket 4.0 21:28:16 10° N 21:34:24 75° W 21:35:54 53° SSW
Cosmos 839 Rocket 4.4 21:31:13 10° NW 21:38:20 63° WSW 21:39:42 51° SSW
Cosmos 1655 Rocket 4.0 21:32:54 10° N 21:39:06 77° W 21:39:53 67° SSW
Cosmos 1943 Rocket 2.7 21:40:12 10° NNW 21:44:22 52° NNW 21:44:22 52° NNW
Cosmos 2369 Rocket 3.9 21:52:21 10° NW 21:57:09 29° WSW 21:58:45 25° SW
USA 215 4.5 22:13:01 25° N 22:15:46 36° NNW 22:21:35 10° W
